Torna al catalogo

COSMOS 886 DEB

AttivoUNKNOWN
NORAD 15555·DEBRIS·🇷🇺 Russia

Lanciato Dec 27, 1976 da Baikonur Cosmodrome

Loading…

Prossimi Passaggi (prossime 24 ore)

TLE

AggiornatoSource: Space-Track

Epoca: Sep 14, 2026, 12:04 UTC

1 15555U 76126BT  26257.50325084  .00000094  00000-0  16850-3 0  9998
2 15555  65.7817 215.6143 0953147 144.3847 222.4761 12.53558107578011

Traccia COSMOS 886 DEB in tempo reale con AllMySat

Download on the App Store